Skip Page Navigation
NASA JPL Caltech
NASA Logo - Jet Propulsion Laboratory + View the NASA Portal
+ Near-Earth Object (NEO) Program
Search JPL
JPL Home Earth Solar System Stars & Galaxies Technology
JPL Solar System Dynamics
BODIES ORBITS EPHEMERIDES TOOLS PHYSICAL DATA DISCOVERY FAQ SITE MAP
JPL Small-Body Database Browser
Search: [ help ]  
(2010 MF1)
Classification: Amor [NEO, PHA]          SPK-ID: 3532363
Ephemeris | Orbit Diagram | Orbital Elements | Physical Parameters | Close-Approach Data ]

[ hide orbit diagram ]
Orbit Diagram
Note: Make sure you have Java enabled on your browser to see the applet. This applet is provided as a 3D orbit visualization tool. The applet was implemented using 2-body methods, and hence should not be used for determining accurate long-term trajectories (over several years or decades) or planetary encounter circumstances. For accurate long-term ephemerides, please instead use our Horizons system.
Orbit Viewer

Additional Notes: the orbits shown in the applet are color coded. The planets are white lines, and the asteroid/comet is a blue line. The bright white line indicates the portion of the orbit that is above the ecliptic plane, and the darker portion is below the ecliptic plane. Likewise for the asteroid/comet orbit, the light blue indicates the portion above the ecliptic plane, and the dark blue the portion below the ecliptic plane.

Orbit Viewer applet originally written and kindly provided by Osamu Ajiki (AstroArts), and further modified by Ron Baalke (JPL).


Orbital Elements at Epoch 2456400.5 (2013-Apr-18.0) TDB
Reference: JPL 93 (heliocentric ecliptic J2000)
 Element Value Uncertainty (1-sigma)   Units 
e .5899274336751796 5.3689e-06  
a 2.497739802372166 3.2855e-05 AU
q 1.024254570770404 7.3415e-08 AU
i 9.120778935500999 5.3736e-05 deg
node 287.0986453660506 7.6347e-05 deg
peri 27.73858898801446 4.4379e-05 deg
M 244.515283569397 0.0048259 deg
tp 2456863.031409632761
(2014-Jul-24.53140963)
0.028455 JED
period 1441.847134532765
3.95
0.028449
7.789e-05
d
yr
n .249679727744966 4.9264e-06 deg/d
Q 3.971225033973928 5.2237e-05 AU
  Orbit Determination Parameters
   # obs. used (total)      579  
   data-arc span      177 days  
   first obs. used      2010-06-18  
   last obs. used      2010-12-12  
   planetary ephem.      DE405  
   SB-pert. ephem.      SB405-CPV-2  
   condition code      3  
   fit RMS      .35518  
   data source      ORB  
   producer      Otto Matic  
   solution date      2011-Sep-14 20:54:36  

Additional Information
 Earth MOID = .0384819 AU 
 T_jup = 3.188 
[ show covariance matrix ]

Ephemeris | Orbit Diagram | Orbital Elements | Physical Parameters | Close-Approach Data ]

Physical Parameter Table
Parameter Symbol Value Units Sigma Reference Notes
absolute magnitude H 19.658 mag .45751 93 autocmod 2.5a

[ show close-approach data ]
Ephemeris | Orbit Diagram | Orbital Elements | Physical Parameters | Close-Approach Data ]
ABOUT SSD CREDITS/AWARDS PRIVACY/COPYRIGHT GLOSSARY LINKS
FirstGov 2013-May-23 17:43 UT
(server date/time)  
NASA Home Page
Site Manager:   Donald K. Yeomans
Webmaster  Alan B. Chamberlin